UAE158 ESSA-OMDB

Flight info

Callsign UAE158
Flight time N/A
Altitude 33000
Route BABAP P156 NEKLA DCT LITPA DCT IRZUK DCT BOKSU/N0475F340 DCT TOXAR DCT ROBTU/N0483F350 DCT KENIN DCT DENAK DCT ARTAT UP975 ERGUN UL124 EVSAS UM688 RATVO M688 SIDAD P975 SESRU M677 VUTEB
Aircraft B77W/H-SDE1E2E3FGHIJ2J3J4J5M1RWXY/LB1D1

Departure

Time N/A
Airport Stockholm-Arlanda Airport (ESSA)

Arrival

Time 2026-04-21 15:18
Airport Dubai International Airport (OMDB)
Time Latitude Longitude Altitude Speed Heading
2026-04-21 14:39 26.41171 52.64150 31369 ft 506 kts 112°
2026-04-21 14:40 26.39956 52.67820 30973 ft 498 kts 112°
2026-04-21 14:40 26.38778 52.71375 30578 ft 491 kts 113°
2026-04-21 14:40 26.37595 52.74942 30176 ft 483 kts 113°
2026-04-21 14:40 26.36448 52.78394 29789 ft 478 kts 113°
2026-04-21 14:41 26.35284 52.81893 29384 ft 477 kts 113°
2026-04-21 14:41 26.34133 52.85346 29005 ft 477 kts 113°
2026-04-21 14:41 26.32992 52.88765 28634 ft 475 kts 113°
2026-04-21 14:41 26.31842 52.92209 28245 ft 472 kts 113°
2026-04-21 14:42 26.30712 52.95594 27860 ft 467 kts 113°
2026-04-21 14:42 26.29575 52.98993 27476 ft 464 kts 113°
2026-04-21 14:42 26.28456 53.02333 27096 ft 466 kts 113°
2026-04-21 14:42 26.27315 53.05738 26706 ft 466 kts 113°
2026-04-21 14:43 26.26197 53.09073 26335 ft 463 kts 113°
2026-04-21 14:43 26.25070 53.12430 25957 ft 457 kts 113°
2026-04-21 14:43 26.23973 53.15696 25590 ft 453 kts 112°
2026-04-21 14:43 26.22871 53.18973 25223 ft 455 kts 112°
2026-04-21 14:44 26.21758 53.22279 24844 ft 455 kts 112°
2026-04-21 14:44 26.20653 53.25561 24469 ft 452 kts 113°
2026-04-21 14:44 26.19556 53.28817 24097 ft 448 kts 112°
2026-04-21 14:44 26.18458 53.32071 23721 ft 447 kts 113°
2026-04-21 14:45 26.17331 53.35239 23350 ft 443 kts 116°
2026-04-21 14:45 26.16053 53.38363 22975 ft 441 kts 117°
2026-04-21 14:45 26.14780 53.41441 22611 ft 438 kts 117°
2026-04-21 14:45 26.13511 53.44525 22245 ft 435 kts 116°
2026-04-21 14:46 26.12268 53.47552 21894 ft 434 kts 116°
2026-04-21 14:46 26.11016 53.50608 21526 ft 431 kts 116°
2026-04-21 14:46 26.09779 53.53633 21158 ft 429 kts 116°
2026-04-21 14:46 26.08556 53.56627 20807 ft 425 kts 116°
2026-04-21 14:47 26.07335 53.59614 20465 ft 425 kts 116°
2026-04-21 14:47 26.06109 53.62614 20102 ft 423 kts 116°
2026-04-21 14:47 26.04906 53.65560 19744 ft 420 kts 116°
2026-04-21 14:47 26.03698 53.68515 19384 ft 419 kts 116°
2026-04-21 14:48 26.02493 53.71461 19019 ft 417 kts 116°
2026-04-21 14:48 26.01307 53.74362 18649 ft 415 kts 116°
2026-04-21 14:48 26.00114 53.77314 18283 ft 414 kts 115°
2026-04-21 14:48 25.98982 53.80207 17936 ft 415 kts 114°
2026-04-21 14:49 25.97835 53.83139 17572 ft 412 kts 114°
2026-04-21 14:49 25.96696 53.86050 17273 ft 410 kts 114°
2026-04-21 14:49 25.95557 53.88957 16977 ft 407 kts 114°
2026-04-21 14:49 25.94426 53.91838 16686 ft 406 kts 115°
2026-04-21 14:50 25.93298 53.94709 16395 ft 404 kts 115°
2026-04-21 14:50 25.92178 53.97556 16113 ft 405 kts 115°
2026-04-21 14:50 25.91017 54.00393 15818 ft 400 kts 117°
2026-04-21 14:50 25.89798 54.03127 15534 ft 398 kts 118°
2026-04-21 14:51 25.88570 54.05873 15246 ft 394 kts 118°
2026-04-21 14:51 25.87355 54.08595 14959 ft 390 kts 118°
2026-04-21 14:51 25.86156 54.11285 14670 ft 388 kts 118°
2026-04-21 14:51 25.84961 54.13971 14386 ft 387 kts 118°
2026-04-21 14:52 25.83759 54.16672 14094 ft 384 kts 118°
2026-04-21 14:52 25.82578 54.19329 13807 ft 381 kts 118°
2026-04-21 14:52 25.81552 54.22010 13519 ft 378 kts 111°
2026-04-21 14:52 25.80693 54.24756 13239 ft 377 kts 111°
2026-04-21 14:53 25.79835 54.27529 12949 ft 376 kts 111°
2026-04-21 14:53 25.78996 54.30236 12664 ft 373 kts 111°
2026-04-21 14:53 25.78147 54.32975 12376 ft 372 kts 111°
2026-04-21 14:53 25.77314 54.35658 12093 ft 369 kts 111°
2026-04-21 14:54 25.76485 54.38326 11859 ft 365 kts 111°
2026-04-21 14:54 25.75658 54.40981 11793 ft 365 kts 111°
2026-04-21 14:54 25.74826 54.43653 11790 ft 368 kts 111°
2026-04-21 14:54 25.73988 54.46342 11791 ft 368 kts 111°
2026-04-21 14:55 25.73163 54.48986 11787 ft 366 kts 111°
2026-04-21 14:55 25.72326 54.51667 11790 ft 368 kts 111°
2026-04-21 14:55 25.71208 54.55244 11788 ft 367 kts 111°
2026-04-21 14:55 25.70654 54.57016 11788 ft 366 kts 111°
2026-04-21 14:56 25.69823 54.59672 11790 ft 367 kts 111°
2026-04-21 14:56 25.68971 54.62359 11789 ft 366 kts 111°
2026-04-21 14:56 25.68126 54.64987 11787 ft 366 kts 111°
2026-04-21 14:56 25.67270 54.67652 11778 ft 366 kts 112°
2026-04-21 14:57 25.66413 54.70317 11776 ft 366 kts 112°
2026-04-21 14:57 25.65562 54.72962 11773 ft 366 kts 112°
2026-04-21 14:57 25.64706 54.75624 11771 ft 365 kts 112°
2026-04-21 14:57 25.63849 54.78284 11770 ft 366 kts 112°
2026-04-21 14:58 25.62991 54.80950 11768 ft 366 kts 111°
2026-04-21 14:58 25.62141 54.83586 11766 ft 365 kts 111°
2026-04-21 14:58 25.61290 54.86228 11767 ft 365 kts 111°
2026-04-21 14:58 25.60355 54.88844 11768 ft 365 kts 115°
2026-04-21 14:59 25.59333 54.91415 11766 ft 364 kts 116°
2026-04-21 14:59 25.58322 54.93960 11762 ft 365 kts 115°
2026-04-21 14:59 25.57294 54.96567 11481 ft 367 kts 115°
2026-04-21 14:59 25.56288 54.99127 11102 ft 364 kts 115°
2026-04-21 15:00 25.55283 55.01693 10718 ft 360 kts 115°
2026-04-21 15:00 25.54220 55.04159 10341 ft 357 kts 121°
2026-04-21 15:00 25.52993 55.06552 9959 ft 355 kts 122°
2026-04-21 15:00 25.51769 55.08900 9578 ft 353 kts 121°
2026-04-21 15:01 25.50538 55.11262 9191 ft 351 kts 121°
2026-04-21 15:01 25.49331 55.13582 8805 ft 349 kts 121°
2026-04-21 15:01 25.48128 55.15895 8427 ft 347 kts 121°
2026-04-21 15:01 25.46934 55.18194 8042 ft 346 kts 121°
2026-04-21 15:02 25.45094 55.21045 7787 ft 342 kts 131°
2026-04-21 15:02 25.44037 55.22371 7778 ft 343 kts 133°
2026-04-21 15:02 25.42457 55.24311 7773 ft 343 kts 133°
2026-04-21 15:02 25.40847 55.26282 7789 ft 343 kts 133°
2026-04-21 15:03 25.39249 55.28242 7783 ft 343 kts 133°
2026-04-21 15:03 25.37642 55.30213 7790 ft 343 kts 133°
2026-04-21 15:03 25.36067 55.32162 7786 ft 343 kts 130°
2026-04-21 15:03 25.34693 55.34340 7787 ft 344 kts 123°
2026-04-21 15:04 25.33441 55.36586 7791 ft 343 kts 122°
2026-04-21 15:04 25.32191 55.38856 7800 ft 344 kts 122°
2026-04-21 15:04 25.30957 55.41086 7789 ft 343 kts 122°
2026-04-21 15:04 25.29705 55.43339 7804 ft 344 kts 122°
2026-04-21 15:05 25.28455 55.45586 7806 ft 345 kts 122°
2026-04-21 15:05 25.25949 55.50085 7800 ft 342 kts 122°
2026-04-21 15:05 25.24705 55.52322 7791 ft 342 kts 122°
2026-04-21 15:06 25.23462 55.54557 7800 ft 342 kts 122°
2026-04-21 15:06 25.22204 55.56817 7804 ft 343 kts 122°
2026-04-21 15:06 25.20957 55.59057 7816 ft 344 kts 122°
2026-04-21 15:06 25.19709 55.61298 7799 ft 342 kts 122°
2026-04-21 15:07 25.18459 55.63543 7800 ft 343 kts 122°
2026-04-21 15:07 25.17213 55.65781 7784 ft 342 kts 122°
2026-04-21 15:07 25.15973 55.68009 7681 ft 340 kts 122°
2026-04-21 15:07 25.14734 55.70231 7424 ft 333 kts 122°
2026-04-21 15:08 25.13529 55.72390 7082 ft 329 kts 122°
2026-04-21 15:08 25.12341 55.74516 6688 ft 322 kts 122°
2026-04-21 15:08 25.11184 55.76588 6362 ft 309 kts 122°
2026-04-21 15:08 25.10038 55.78523 6062 ft 300 kts 131°
2026-04-21 15:09 25.08417 55.79927 5722 ft 295 kts 157°
2026-04-21 15:09 25.06462 55.80412 5401 ft 288 kts 184°
2026-04-21 15:09 25.04553 55.79904 5148 ft 277 kts 211°
2026-04-21 15:09 25.03118 55.78574 4912 ft 265 kts 234°
2026-04-21 15:10 25.02382 55.76786 4645 ft 253 kts 263°
2026-04-21 15:10 25.02557 55.74921 4496 ft 242 kts 294°
2026-04-21 15:10 25.03528 55.73414 4488 ft 243 kts 313°
2026-04-21 15:10 25.04643 55.72001 4486 ft 245 kts 310°
2026-04-21 15:11 25.05711 55.70515 4481 ft 246 kts 308°
2026-04-21 15:11 25.06715 55.69015 4475 ft 246 kts 307°
2026-04-21 15:11 25.07703 55.67461 4479 ft 245 kts 305°
2026-04-21 15:11 25.08657 55.65901 4468 ft 239 kts 304°
2026-04-21 15:12 25.09541 55.64433 4464 ft 224 kts 304°
2026-04-21 15:12 25.10373 55.63036 4471 ft 214 kts 304°
2026-04-21 15:12 25.11174 55.61662 4442 ft 215 kts 303°
2026-04-21 15:12 25.11975 55.60254 4175 ft 216 kts 303°
2026-04-21 15:13 25.12770 55.58840 3917 ft 214 kts 303°
2026-04-21 15:13 25.13538 55.57473 3663 ft 209 kts 303°
2026-04-21 15:13 25.14293 55.56123 3406 ft 203 kts 303°
2026-04-21 15:13 25.15034 55.54800 3154 ft 199 kts 304°
2026-04-21 15:14 25.15749 55.53521 2907 ft 194 kts 304°
2026-04-21 15:14 25.16450 55.52267 2664 ft 187 kts 304°
2026-04-21 15:14 25.17113 55.51079 2427 ft 180 kts 304°
2026-04-21 15:14 25.17757 55.49926 2202 ft 170 kts 304°
2026-04-21 15:15 25.18350 55.48864 2001 ft 159 kts 304°
2026-04-21 15:15 25.18934 55.47820 1791 ft 157 kts 304°
2026-04-21 15:15 25.19499 55.46804 1583 ft 157 kts 304°
2026-04-21 15:15 25.20080 55.45781 1364 ft 158 kts 305°
2026-04-21 15:16 25.20660 55.44754 1125 ft 157 kts 304°
2026-04-21 15:16 25.21229 55.43739 888 ft 156 kts 303°
2026-04-21 15:16 25.21798 55.42701 701 ft 156 kts 303°
2026-04-21 15:16 25.22370 55.41676 517 ft 156 kts 304°
2026-04-21 15:17 25.22934 55.40654 321 ft 154 kts 304°
2026-04-21 15:17 25.23497 55.39650 129 ft 155 kts 304°
2026-04-21 15:17 25.24048 55.38665 46 ft 140 kts 302°
2026-04-21 15:17 25.24475 55.37887 46 ft 95 kts 302°
2026-04-21 15:18 25.24701 55.37485 53 ft 36 kts 300°
2026-04-21 15:18 25.24776 55.37316 55 ft 20 kts 288°
2026-04-21 15:18 25.24788 55.37172 57 ft 17 kts 271°
2026-04-21 15:18 25.24790 55.37050 59 ft 15 kts 271°
2026-04-21 15:19 25.24805 55.36952 59 ft 11 kts 282°
2026-04-21 15:19 25.24778 55.36872 60 ft 10 kts 232°
2026-04-21 15:19 25.24719 55.36814 60 ft 13 kts 211°
2026-04-21 15:19 25.24630 55.36756 59 ft 16 kts 211°
2026-04-21 15:20 25.24532 55.36691 58 ft 15 kts 212°
2026-04-21 15:20 25.24462 55.36619 56 ft 15 kts 244°
2026-04-21 15:20 25.24460 55.36490 51 ft 14 kts 293°
2026-04-21 15:20 25.24521 55.36374 45 ft 12 kts 302°
2026-04-21 15:21 25.24551 55.36326 43 ft 4 kts 330°
2026-04-21 15:21 25.24590 55.36343 43 ft 7 kts 33°
2026-04-21 15:21 25.24609 55.36357 44 ft 1 kts 32°
2026-04-21 15:21 25.24624 55.36367 44 ft 3 kts 33°
2026-04-21 15:22 25.24626 55.36368 44 ft 0 kts 31°